Data supplied by UK-AIR on 5/4/2008
All Data GMT hour ending 
Status: R =Ratified P=Provisional,P*=As supplied
,,Strath Vaich,,,,,,,,,,,,,,,,,,,,,,,
Date,time,"Ozone",status,unit
 
01-01-2003,01:00,40,R,ugm-3
01-01-2003,02:00,34,R,ugm-3
01-01-2003,03:00,36,R,ugm-3
01-01-2003,04:00,38,R,ugm-3
01-01-2003,05:00,34,R,ugm-3
01-01-2003,06:00,32,R,ugm-3
01-01-2003,07:00,34,R,ugm-3
01-01-2003,08:00,30,R,ugm-3
01-01-2003,09:00,30,R,ugm-3
01-01-2003,10:00,36,R,ugm-3
01-01-2003,11:00,34,R,ugm-3
01-01-2003,12:00,40,R,ugm-3
01-01-2003,13:00,38,R,ugm-3
01-01-2003,14:00,44,R,ugm-3
01-01-2003,15:00,44,R,ugm-3
01-01-2003,16:00,46,R,ugm-3
01-01-2003,17:00,46,R,ugm-3
01-01-2003,18:00,50,R,ugm-3
01-01-2003,19:00,54,R,ugm-3
01-01-2003,20:00,54,R,ugm-3
01-01-2003,21:00,52,R,ugm-3
01-01-2003,22:00,52,R,ugm-3
01-01-2003,23:00,54,R,ugm-3
01-01-2003,24:00,56,R,ugm-3
02-01-2003,01:00,54,R,ugm-3
02-01-2003,02:00,60,R,ugm-3
02-01-2003,03:00,62,R,ugm-3
02-01-2003,04:00,64,R,ugm-3
02-01-2003,05:00,66,R,ugm-3
02-01-2003,06:00,68,R,ugm-3
02-01-2003,07:00,68,R,ugm-3
02-01-2003,08:00,70,R,ugm-3
02-01-2003,09:00,68,R,ugm-3
02-01-2003,10:00,72,R,ugm-3
02-01-2003,11:00,70,R,ugm-3
02-01-2003,12:00,66,R,ugm-3
02-01-2003,13:00,66,R,ugm-3
02-01-2003,14:00,66,R,ugm-3
02-01-2003,15:00,68,R,ugm-3
02-01-2003,16:00,68,R,ugm-3
02-01-2003,17:00,68,R,ugm-3
02-01-2003,18:00,68,R,ugm-3
02-01-2003,19:00,70,R,ugm-3
02-01-2003,20:00,72,R,ugm-3
02-01-2003,21:00,70,R,ugm-3
02-01-2003,22:00,66,R,ugm-3
02-01-2003,23:00,62,R,ugm-3
02-01-2003,24:00,62,R,ugm-3
03-01-2003,01:00,60,R,ugm-3
03-01-2003,02:00,58,R,ugm-3
03-01-2003,03:00,56,R,ugm-3
03-01-2003,04:00,58,R,ugm-3
03-01-2003,05:00,66,R,ugm-3
03-01-2003,06:00,68,R,ugm-3
03-01-2003,07:00,72,R,ugm-3
03-01-2003,08:00,74,R,ugm-3
03-01-2003,09:00,76,R,ugm-3
03-01-2003,10:00,76,R,ugm-3
03-01-2003,11:00,78,R,ugm-3
03-01-2003,12:00,78,R,ugm-3
03-01-2003,13:00,76,R,ugm-3
03-01-2003,14:00,70,R,ugm-3
03-01-2003,15:00,72,R,ugm-3
03-01-2003,16:00,72,R,ugm-3
03-01-2003,17:00,76,R,ugm-3
03-01-2003,18:00,74,R,ugm-3
03-01-2003,19:00,72,R,ugm-3
03-01-2003,20:00,72,R,ugm-3
03-01-2003,21:00,72,R,ugm-3
03-01-2003,22:00,72,R,ugm-3
03-01-2003,23:00,70,R,ugm-3
03-01-2003,24:00,68,R,ugm-3
04-01-2003,01:00,68,R,ugm-3
04-01-2003,02:00,58,R,ugm-3
04-01-2003,03:00,58,R,ugm-3
04-01-2003,04:00,54,R,ugm-3
04-01-2003,05:00,56,R,ugm-3
04-01-2003,06:00,56,R,ugm-3
04-01-2003,07:00,54,R,ugm-3
04-01-2003,08:00,54,R,ugm-3
04-01-2003,09:00,54,R,ugm-3
04-01-2003,10:00,52,R,ugm-3
04-01-2003,11:00,50,R,ugm-3
04-01-2003,12:00,50,R,ugm-3
04-01-2003,13:00,50,R,ugm-3
04-01-2003,14:00,52,R,ugm-3
04-01-2003,15:00,54,R,ugm-3
04-01-2003,16:00,54,R,ugm-3
04-01-2003,17:00,56,R,ugm-3
04-01-2003,18:00,54,R,ugm-3
04-01-2003,19:00,52,R,ugm-3
04-01-2003,20:00,52,R,ugm-3
04-01-2003,21:00,54,R,ugm-3
04-01-2003,22:00,52,R,ugm-3
04-01-2003,23:00,52,R,ugm-3
04-01-2003,24:00,52,R,ugm-3
05-01-2003,01:00,54,R,ugm-3
05-01-2003,02:00,56,R,ugm-3
05-01-2003,03:00,56,R,ugm-3
05-01-2003,04:00,58,R,ugm-3
05-01-2003,05:00,52,R,ugm-3
05-01-2003,06:00,52,R,ugm-3
05-01-2003,07:00,54,R,ugm-3
05-01-2003,08:00,50,R,ugm-3
05-01-2003,09:00,52,R,ugm-3
05-01-2003,10:00,50,R,ugm-3
05-01-2003,11:00,54,R,ugm-3
05-01-2003,12:00,54,R,ugm-3
05-01-2003,13:00,64,R,ugm-3
05-01-2003,14:00,74,R,ugm-3
05-01-2003,15:00,70,R,ugm-3
05-01-2003,16:00,70,R,ugm-3
05-01-2003,17:00,70,R,ugm-3
05-01-2003,18:00,70,R,ugm-3
05-01-2003,19:00,70,R,ugm-3
05-01-2003,20:00,66,R,ugm-3
05-01-2003,21:00,66,R,ugm-3
05-01-2003,22:00,68,R,ugm-3
05-01-2003,23:00,64,R,ugm-3
05-01-2003,24:00,66,R,ugm-3
06-01-2003,01:00,68,R,ugm-3
06-01-2003,02:00,64,R,ugm-3
06-01-2003,03:00,64,R,ugm-3
06-01-2003,04:00,62,R,ugm-3
06-01-2003,05:00,64,R,ugm-3
06-01-2003,06:00,64,R,ugm-3
06-01-2003,07:00,64,R,ugm-3
06-01-2003,08:00,62,R,ugm-3
06-01-2003,09:00,60,R,ugm-3
06-01-2003,10:00,64,R,ugm-3
06-01-2003,11:00,64,R,ugm-3
06-01-2003,12:00,66,R,ugm-3
06-01-2003,13:00,64,R,ugm-3
06-01-2003,14:00,62,R,ugm-3
06-01-2003,15:00,62,R,ugm-3
06-01-2003,16:00,60,R,ugm-3
06-01-2003,17:00,62,R,ugm-3
06-01-2003,18:00,66,R,ugm-3
06-01-2003,19:00,64,R,ugm-3
06-01-2003,20:00,64,R,ugm-3
06-01-2003,21:00,66,R,ugm-3
06-01-2003,22:00,66,R,ugm-3
06-01-2003,23:00,68,R,ugm-3
06-01-2003,24:00,64,R,ugm-3
07-01-2003,01:00,64,R,ugm-3
07-01-2003,02:00,62,R,ugm-3
07-01-2003,03:00,66,R,ugm-3
07-01-2003,04:00,64,R,ugm-3
07-01-2003,05:00,60,R,ugm-3
07-01-2003,06:00,62,R,ugm-3
07-01-2003,07:00,64,R,ugm-3
07-01-2003,08:00,62,R,ugm-3
07-01-2003,09:00,62,R,ugm-3
07-01-2003,10:00,62,R,ugm-3
07-01-2003,11:00,68,R,ugm-3
07-01-2003,12:00,66,R,ugm-3
07-01-2003,13:00,66,R,ugm-3
07-01-2003,14:00,70,R,ugm-3
07-01-2003,15:00,68,R,ugm-3
07-01-2003,16:00,66,R,ugm-3
07-01-2003,17:00,66,R,ugm-3
07-01-2003,18:00,62,R,ugm-3
07-01-2003,19:00,62,R,ugm-3
07-01-2003,20:00,60,R,ugm-3
07-01-2003,21:00,62,R,ugm-3
07-01-2003,22:00,58,R,ugm-3
07-01-2003,23:00,60,R,ugm-3
07-01-2003,24:00,60,R,ugm-3
08-01-2003,01:00,68,R,ugm-3
08-01-2003,02:00,68,R,ugm-3
08-01-2003,03:00,66,R,ugm-3
08-01-2003,04:00,68,R,ugm-3
08-01-2003,05:00,68,R,ugm-3
08-01-2003,06:00,70,R,ugm-3
08-01-2003,07:00,70,R,ugm-3
08-01-2003,08:00,72,R,ugm-3
08-01-2003,09:00,72,R,ugm-3
08-01-2003,10:00,70,R,ugm-3
08-01-2003,11:00,70,R,ugm-3
08-01-2003,12:00,70,R,ugm-3
08-01-2003,13:00,68,R,ugm-3
08-01-2003,14:00,70,R,ugm-3
08-01-2003,15:00,72,R,ugm-3
08-01-2003,16:00,72,R,ugm-3
08-01-2003,17:00,68,R,ugm-3
08-01-2003,18:00,68,R,ugm-3
08-01-2003,19:00,68,R,ugm-3
08-01-2003,20:00,66,R,ugm-3
08-01-2003,21:00,70,R,ugm-3
08-01-2003,22:00,68,R,ugm-3
08-01-2003,23:00,68,R,ugm-3
08-01-2003,24:00,62,R,ugm-3
09-01-2003,01:00,68,R,ugm-3
09-01-2003,02:00,64,R,ugm-3
09-01-2003,03:00,68,R,ugm-3
09-01-2003,04:00,58,R,ugm-3
09-01-2003,05:00,56,R,ugm-3
09-01-2003,06:00,58,R,ugm-3
09-01-2003,07:00,60,R,ugm-3
09-01-2003,08:00,58,R,ugm-3
09-01-2003,09:00,56,R,ugm-3
09-01-2003,10:00,56,R,ugm-3
09-01-2003,11:00,58,R,ugm-3
09-01-2003,12:00,58,R,ugm-3
09-01-2003,13:00,60,R,ugm-3
09-01-2003,14:00,56,R,ugm-3
09-01-2003,15:00,56,R,ugm-3
09-01-2003,16:00,52,R,ugm-3
09-01-2003,17:00,52,R,ugm-3
09-01-2003,18:00,,,
09-01-2003,19:00,64,R,ugm-3
09-01-2003,20:00,64,R,ugm-3
09-01-2003,21:00,62,R,ugm-3
09-01-2003,22:00,60,R,ugm-3
09-01-2003,23:00,58,R,ugm-3
09-01-2003,24:00,58,R,ugm-3
10-01-2003,01:00,60,R,ugm-3
10-01-2003,02:00,58,R,ugm-3
10-01-2003,03:00,56,R,ugm-3
10-01-2003,04:00,54,R,ugm-3
10-01-2003,05:00,54,R,ugm-3
10-01-2003,06:00,56,R,ugm-3
10-01-2003,07:00,54,R,ugm-3
10-01-2003,08:00,56,R,ugm-3
10-01-2003,09:00,56,R,ugm-3
10-01-2003,10:00,56,R,ugm-3
10-01-2003,11:00,56,R,ugm-3
10-01-2003,12:00,56,R,ugm-3
10-01-2003,13:00,58,R,ugm-3
10-01-2003,14:00,64,R,ugm-3
10-01-2003,15:00,62,R,ugm-3
10-01-2003,16:00,56,R,ugm-3
10-01-2003,17:00,54,R,ugm-3
10-01-2003,18:00,50,R,ugm-3
10-01-2003,19:00,48,R,ugm-3
10-01-2003,20:00,50,R,ugm-3
10-01-2003,21:00,48,R,ugm-3
10-01-2003,22:00,48,R,ugm-3
10-01-2003,23:00,48,R,ugm-3
10-01-2003,24:00,48,R,ugm-3
11-01-2003,01:00,46,R,ugm-3
11-01-2003,02:00,46,R,ugm-3
11-01-2003,03:00,44,R,ugm-3
11-01-2003,04:00,48,R,ugm-3
11-01-2003,05:00,54,R,ugm-3
11-01-2003,06:00,54,R,ugm-3
11-01-2003,07:00,52,R,ugm-3
11-01-2003,08:00,56,R,ugm-3
11-01-2003,09:00,54,R,ugm-3
11-01-2003,10:00,56,R,ugm-3
11-01-2003,11:00,56,R,ugm-3
11-01-2003,12:00,56,R,ugm-3
11-01-2003,13:00,62,R,ugm-3
11-01-2003,14:00,66,R,ugm-3
11-01-2003,15:00,68,R,ugm-3
11-01-2003,16:00,66,R,ugm-3
11-01-2003,17:00,66,R,ugm-3
11-01-2003,18:00,64,R,ugm-3
11-01-2003,19:00,62,R,ugm-3
11-01-2003,20:00,58,R,ugm-3
11-01-2003,21:00,62,R,ugm-3
11-01-2003,22:00,66,R,ugm-3
11-01-2003,23:00,70,R,ugm-3
11-01-2003,24:00,70,R,ugm-3
12-01-2003,01:00,66,R,ugm-3
12-01-2003,02:00,68,R,ugm-3
12-01-2003,03:00,72,R,ugm-3
12-01-2003,04:00,70,R,ugm-3
12-01-2003,05:00,64,R,ugm-3
12-01-2003,06:00,68,R,ugm-3
12-01-2003,07:00,64,R,ugm-3
12-01-2003,08:00,64,R,ugm-3
12-01-2003,09:00,66,R,ugm-3
12-01-2003,10:00,64,R,ugm-3
12-01-2003,11:00,72,R,ugm-3
12-01-2003,12:00,,,
12-01-2003,13:00,,,
12-01-2003,14:00,,,
12-01-2003,15:00,,,
12-01-2003,16:00,,,
12-01-2003,17:00,,,
12-01-2003,18:00,,,
12-01-2003,19:00,,,
12-01-2003,20:00,,,
12-01-2003,21:00,,,
12-01-2003,22:00,,,
12-01-2003,23:00,,,
12-01-2003,24:00,,,
13-01-2003,01:00,,,
13-01-2003,02:00,,,
13-01-2003,03:00,,,
13-01-2003,04:00,,,
13-01-2003,05:00,,,
13-01-2003,06:00,,,
13-01-2003,07:00,,,
13-01-2003,08:00,,,
13-01-2003,09:00,,,
13-01-2003,10:00,,,
13-01-2003,11:00,,,
13-01-2003,12:00,,,
13-01-2003,13:00,,,
13-01-2003,14:00,,,
13-01-2003,15:00,,,
13-01-2003,16:00,,,
13-01-2003,17:00,,,
13-01-2003,18:00,,,
13-01-2003,19:00,,,
13-01-2003,20:00,,,
13-01-2003,21:00,,,
13-01-2003,22:00,,,
13-01-2003,23:00,,,
13-01-2003,24:00,,,
14-01-2003,01:00,,,
14-01-2003,02:00,,,
14-01-2003,03:00,,,
14-01-2003,04:00,,,
14-01-2003,05:00,,,
14-01-2003,06:00,,,
14-01-2003,07:00,,,
14-01-2003,08:00,,,
14-01-2003,09:00,,,
14-01-2003,10:00,,,
14-01-2003,11:00,,,
14-01-2003,12:00,,,
14-01-2003,13:00,,,
14-01-2003,14:00,,,
14-01-2003,15:00,,,
14-01-2003,16:00,,,
14-01-2003,17:00,,,
14-01-2003,18:00,,,
14-01-2003,19:00,,,
14-01-2003,20:00,,,
14-01-2003,21:00,,,
14-01-2003,22:00,,,
14-01-2003,23:00,,,
14-01-2003,24:00,,,
15-01-2003,01:00,,,
15-01-2003,02:00,,,
15-01-2003,03:00,,,
15-01-2003,04:00,,,
15-01-2003,05:00,,,
15-01-2003,06:00,,,
15-01-2003,07:00,,,
15-01-2003,08:00,,,
15-01-2003,09:00,,,
15-01-2003,10:00,,,
15-01-2003,11:00,,,
15-01-2003,12:00,,,
15-01-2003,13:00,,,
15-01-2003,14:00,,,
15-01-2003,15:00,,,
15-01-2003,16:00,,,
15-01-2003,17:00,,,
15-01-2003,18:00,,,
15-01-2003,19:00,,,
15-01-2003,20:00,,,
15-01-2003,21:00,,,
15-01-2003,22:00,,,
15-01-2003,23:00,,,
15-01-2003,24:00,,,
16-01-2003,01:00,,,
16-01-2003,02:00,,,
16-01-2003,03:00,,,
16-01-2003,04:00,,,
16-01-2003,05:00,,,
16-01-2003,06:00,,,
16-01-2003,07:00,,,
16-01-2003,08:00,,,
16-01-2003,09:00,,,
16-01-2003,10:00,,,
16-01-2003,11:00,,,
16-01-2003,12:00,,,
16-01-2003,13:00,,,
16-01-2003,14:00,,,
16-01-2003,15:00,,,
16-01-2003,16:00,,,
16-01-2003,17:00,80,R,ugm-3
16-01-2003,18:00,74,R,ugm-3
16-01-2003,19:00,78,R,ugm-3
16-01-2003,20:00,76,R,ugm-3
16-01-2003,21:00,74,R,ugm-3
16-01-2003,22:00,72,R,ugm-3
16-01-2003,23:00,72,R,ugm-3
16-01-2003,24:00,74,R,ugm-3
17-01-2003,01:00,76,R,ugm-3
17-01-2003,02:00,74,R,ugm-3
17-01-2003,03:00,76,R,ugm-3
17-01-2003,04:00,88,R,ugm-3
17-01-2003,05:00,90,R,ugm-3
17-01-2003,06:00,86,R,ugm-3
17-01-2003,07:00,86,R,ugm-3
17-01-2003,08:00,84,R,ugm-3
17-01-2003,09:00,84,R,ugm-3
17-01-2003,10:00,86,R,ugm-3
17-01-2003,11:00,84,R,ugm-3
17-01-2003,12:00,84,R,ugm-3
17-01-2003,13:00,84,R,ugm-3
17-01-2003,14:00,90,R,ugm-3
17-01-2003,15:00,88,R,ugm-3
17-01-2003,16:00,84,R,ugm-3
17-01-2003,17:00,84,R,ugm-3
17-01-2003,18:00,84,R,ugm-3
17-01-2003,19:00,84,R,ugm-3
17-01-2003,20:00,86,R,ugm-3
17-01-2003,21:00,86,R,ugm-3
17-01-2003,22:00,84,R,ugm-3
17-01-2003,23:00,84,R,ugm-3
17-01-2003,24:00,84,R,ugm-3
18-01-2003,01:00,82,R,ugm-3
18-01-2003,02:00,80,R,ugm-3
18-01-2003,03:00,78,R,ugm-3
18-01-2003,04:00,80,R,ugm-3
18-01-2003,05:00,80,R,ugm-3
18-01-2003,06:00,80,R,ugm-3
18-01-2003,07:00,80,R,ugm-3
18-01-2003,08:00,80,R,ugm-3
18-01-2003,09:00,78,R,ugm-3
18-01-2003,10:00,74,R,ugm-3
18-01-2003,11:00,70,R,ugm-3
18-01-2003,12:00,74,R,ugm-3
18-01-2003,13:00,72,R,ugm-3
18-01-2003,14:00,68,R,ugm-3
18-01-2003,15:00,66,R,ugm-3
18-01-2003,16:00,64,R,ugm-3
18-01-2003,17:00,64,R,ugm-3
18-01-2003,18:00,62,R,ugm-3
18-01-2003,19:00,62,R,ugm-3
18-01-2003,20:00,66,R,ugm-3
18-01-2003,21:00,68,R,ugm-3
18-01-2003,22:00,64,R,ugm-3
18-01-2003,23:00,64,R,ugm-3
18-01-2003,24:00,64,R,ugm-3
19-01-2003,01:00,64,R,ugm-3
19-01-2003,02:00,58,R,ugm-3
19-01-2003,03:00,54,R,ugm-3
19-01-2003,04:00,58,R,ugm-3
19-01-2003,05:00,62,R,ugm-3
19-01-2003,06:00,64,R,ugm-3
19-01-2003,07:00,62,R,ugm-3
19-01-2003,08:00,56,R,ugm-3
19-01-2003,09:00,54,R,ugm-3
19-01-2003,10:00,54,R,ugm-3
19-01-2003,11:00,52,R,ugm-3
19-01-2003,12:00,52,R,ugm-3
19-01-2003,13:00,54,R,ugm-3
19-01-2003,14:00,58,R,ugm-3
19-01-2003,15:00,54,R,ugm-3
19-01-2003,16:00,52,R,ugm-3
19-01-2003,17:00,52,R,ugm-3
19-01-2003,18:00,50,R,ugm-3
19-01-2003,19:00,52,R,ugm-3
19-01-2003,20:00,48,R,ugm-3
19-01-2003,21:00,50,R,ugm-3
19-01-2003,22:00,52,R,ugm-3
19-01-2003,23:00,56,R,ugm-3
19-01-2003,24:00,58,R,ugm-3
20-01-2003,01:00,58,R,ugm-3
20-01-2003,02:00,56,R,ugm-3
20-01-2003,03:00,62,R,ugm-3
20-01-2003,04:00,60,R,ugm-3
20-01-2003,05:00,60,R,ugm-3
20-01-2003,06:00,56,R,ugm-3
20-01-2003,07:00,60,R,ugm-3
20-01-2003,08:00,60,R,ugm-3
20-01-2003,09:00,60,R,ugm-3
20-01-2003,10:00,68,R,ugm-3
20-01-2003,11:00,72,R,ugm-3
20-01-2003,12:00,68,R,ugm-3
20-01-2003,13:00,64,R,ugm-3
20-01-2003,14:00,62,R,ugm-3
20-01-2003,15:00,60,R,ugm-3
20-01-2003,16:00,66,R,ugm-3
20-01-2003,17:00,72,R,ugm-3
20-01-2003,18:00,74,R,ugm-3
20-01-2003,19:00,74,R,ugm-3
20-01-2003,20:00,74,R,ugm-3
20-01-2003,21:00,70,R,ugm-3
20-01-2003,22:00,66,R,ugm-3
20-01-2003,23:00,68,R,ugm-3
20-01-2003,24:00,60,R,ugm-3
21-01-2003,01:00,56,R,ugm-3
21-01-2003,02:00,54,R,ugm-3
21-01-2003,03:00,52,R,ugm-3
21-01-2003,04:00,52,R,ugm-3
21-01-2003,05:00,48,R,ugm-3
21-01-2003,06:00,52,R,ugm-3
21-01-2003,07:00,64,R,ugm-3
21-01-2003,08:00,74,R,ugm-3
21-01-2003,09:00,76,R,ugm-3
21-01-2003,10:00,74,R,ugm-3
21-01-2003,11:00,72,R,ugm-3
21-01-2003,12:00,68,R,ugm-3
21-01-2003,13:00,68,R,ugm-3
21-01-2003,14:00,70,R,ugm-3
21-01-2003,15:00,72,R,ugm-3
21-01-2003,16:00,70,R,ugm-3
21-01-2003,17:00,64,R,ugm-3
21-01-2003,18:00,66,R,ugm-3
21-01-2003,19:00,68,R,ugm-3
21-01-2003,20:00,66,R,ugm-3
21-01-2003,21:00,66,R,ugm-3
21-01-2003,22:00,66,R,ugm-3
21-01-2003,23:00,66,R,ugm-3
21-01-2003,24:00,66,R,ugm-3
22-01-2003,01:00,66,R,ugm-3
22-01-2003,02:00,60,R,ugm-3
22-01-2003,03:00,62,R,ugm-3
22-01-2003,04:00,66,R,ugm-3
22-01-2003,05:00,70,R,ugm-3
22-01-2003,06:00,62,R,ugm-3
22-01-2003,07:00,64,R,ugm-3
22-01-2003,08:00,68,R,ugm-3
22-01-2003,09:00,72,R,ugm-3
22-01-2003,10:00,74,R,ugm-3
22-01-2003,11:00,76,R,ugm-3
22-01-2003,12:00,76,R,ugm-3
22-01-2003,13:00,78,R,ugm-3
22-01-2003,14:00,78,R,ugm-3
22-01-2003,15:00,78,R,ugm-3
22-01-2003,16:00,78,R,ugm-3
22-01-2003,17:00,78,R,ugm-3
22-01-2003,18:00,78,R,ugm-3
22-01-2003,19:00,78,R,ugm-3
22-01-2003,20:00,76,R,ugm-3
22-01-2003,21:00,76,R,ugm-3
22-01-2003,22:00,74,R,ugm-3
22-01-2003,23:00,74,R,ugm-3
22-01-2003,24:00,74,R,ugm-3
23-01-2003,01:00,72,R,ugm-3
23-01-2003,02:00,76,R,ugm-3
23-01-2003,03:00,72,R,ugm-3
23-01-2003,04:00,68,R,ugm-3
23-01-2003,05:00,64,R,ugm-3
23-01-2003,06:00,60,R,ugm-3
23-01-2003,07:00,60,R,ugm-3
23-01-2003,08:00,60,R,ugm-3
23-01-2003,09:00,58,R,ugm-3
23-01-2003,10:00,66,R,ugm-3
23-01-2003,11:00,64,R,ugm-3
23-01-2003,12:00,64,R,ugm-3
23-01-2003,13:00,68,R,ugm-3
23-01-2003,14:00,68,R,ugm-3
23-01-2003,15:00,66,R,ugm-3
23-01-2003,16:00,68,R,ugm-3
23-01-2003,17:00,64,R,ugm-3
23-01-2003,18:00,58,R,ugm-3
23-01-2003,19:00,64,R,ugm-3
23-01-2003,20:00,64,R,ugm-3
23-01-2003,21:00,64,R,ugm-3
23-01-2003,22:00,70,R,ugm-3
23-01-2003,23:00,76,R,ugm-3
23-01-2003,24:00,74,R,ugm-3
24-01-2003,01:00,72,R,ugm-3
24-01-2003,02:00,74,R,ugm-3
24-01-2003,03:00,76,R,ugm-3
24-01-2003,04:00,78,R,ugm-3
24-01-2003,05:00,78,R,ugm-3
24-01-2003,06:00,78,R,ugm-3
24-01-2003,07:00,78,R,ugm-3
24-01-2003,08:00,78,R,ugm-3
24-01-2003,09:00,76,R,ugm-3
24-01-2003,10:00,78,R,ugm-3
24-01-2003,11:00,78,R,ugm-3
24-01-2003,12:00,74,R,ugm-3
24-01-2003,13:00,74,R,ugm-3
24-01-2003,14:00,74,R,ugm-3
24-01-2003,15:00,74,R,ugm-3
24-01-2003,16:00,74,R,ugm-3
24-01-2003,17:00,76,R,ugm-3
24-01-2003,18:00,72,R,ugm-3
24-01-2003,19:00,74,R,ugm-3
24-01-2003,20:00,72,R,ugm-3
24-01-2003,21:00,74,R,ugm-3
24-01-2003,22:00,72,R,ugm-3
24-01-2003,23:00,74,R,ugm-3
24-01-2003,24:00,72,R,ugm-3
25-01-2003,01:00,70,R,ugm-3
25-01-2003,02:00,70,R,ugm-3
25-01-2003,03:00,72,R,ugm-3
25-01-2003,04:00,90,R,ugm-3
25-01-2003,05:00,90,R,ugm-3
25-01-2003,06:00,88,R,ugm-3
25-01-2003,07:00,88,R,ugm-3
25-01-2003,08:00,86,R,ugm-3
25-01-2003,09:00,82,R,ugm-3
25-01-2003,10:00,82,R,ugm-3
25-01-2003,11:00,84,R,ugm-3
25-01-2003,12:00,84,R,ugm-3
25-01-2003,13:00,84,R,ugm-3
25-01-2003,14:00,82,R,ugm-3
25-01-2003,15:00,82,R,ugm-3
25-01-2003,16:00,80,R,ugm-3
25-01-2003,17:00,82,R,ugm-3
25-01-2003,18:00,84,R,ugm-3
25-01-2003,19:00,84,R,ugm-3
25-01-2003,20:00,86,R,ugm-3
25-01-2003,21:00,84,R,ugm-3
25-01-2003,22:00,82,R,ugm-3
25-01-2003,23:00,84,R,ugm-3
25-01-2003,24:00,82,R,ugm-3
26-01-2003,01:00,82,R,ugm-3
26-01-2003,02:00,78,R,ugm-3
26-01-2003,03:00,78,R,ugm-3
26-01-2003,04:00,80,R,ugm-3
26-01-2003,05:00,80,R,ugm-3
26-01-2003,06:00,74,R,ugm-3
26-01-2003,07:00,66,R,ugm-3
26-01-2003,08:00,64,R,ugm-3
26-01-2003,09:00,62,R,ugm-3
26-01-2003,10:00,62,R,ugm-3
26-01-2003,11:00,60,R,ugm-3
26-01-2003,12:00,62,R,ugm-3
26-01-2003,13:00,60,R,ugm-3
26-01-2003,14:00,58,R,ugm-3
26-01-2003,15:00,56,R,ugm-3
26-01-2003,16:00,54,R,ugm-3
26-01-2003,17:00,52,R,ugm-3
26-01-2003,18:00,54,R,ugm-3
26-01-2003,19:00,58,R,ugm-3
26-01-2003,20:00,58,R,ugm-3
26-01-2003,21:00,62,R,ugm-3
26-01-2003,22:00,64,R,ugm-3
26-01-2003,23:00,64,R,ugm-3
26-01-2003,24:00,64,R,ugm-3
27-01-2003,01:00,60,R,ugm-3
27-01-2003,02:00,62,R,ugm-3
27-01-2003,03:00,66,R,ugm-3
27-01-2003,04:00,68,R,ugm-3
27-01-2003,05:00,72,R,ugm-3
27-01-2003,06:00,76,R,ugm-3
27-01-2003,07:00,80,R,ugm-3
27-01-2003,08:00,84,R,ugm-3
27-01-2003,09:00,90,R,ugm-3
27-01-2003,10:00,88,R,ugm-3
27-01-2003,11:00,86,R,ugm-3
27-01-2003,12:00,86,R,ugm-3
27-01-2003,13:00,84,R,ugm-3
27-01-2003,14:00,86,R,ugm-3
27-01-2003,15:00,86,R,ugm-3
27-01-2003,16:00,88,R,ugm-3
27-01-2003,17:00,86,R,ugm-3
27-01-2003,18:00,84,R,ugm-3
27-01-2003,19:00,84,R,ugm-3
27-01-2003,20:00,82,R,ugm-3
27-01-2003,21:00,82,R,ugm-3
27-01-2003,22:00,84,R,ugm-3
27-01-2003,23:00,84,R,ugm-3
27-01-2003,24:00,84,R,ugm-3
28-01-2003,01:00,82,R,ugm-3
28-01-2003,02:00,78,R,ugm-3
28-01-2003,03:00,80,R,ugm-3
28-01-2003,04:00,84,R,ugm-3
28-01-2003,05:00,84,R,ugm-3
28-01-2003,06:00,84,R,ugm-3
28-01-2003,07:00,84,R,ugm-3
28-01-2003,08:00,84,R,ugm-3
28-01-2003,09:00,84,R,ugm-3
28-01-2003,10:00,80,R,ugm-3
28-01-2003,11:00,82,R,ugm-3
28-01-2003,12:00,78,R,ugm-3
28-01-2003,13:00,78,R,ugm-3
28-01-2003,14:00,80,R,ugm-3
28-01-2003,15:00,,,
28-01-2003,16:00,76,R,ugm-3
28-01-2003,17:00,76,R,ugm-3
28-01-2003,18:00,74,R,ugm-3
28-01-2003,19:00,78,R,ugm-3
28-01-2003,20:00,78,R,ugm-3
28-01-2003,21:00,82,R,ugm-3
28-01-2003,22:00,82,R,ugm-3
28-01-2003,23:00,80,R,ugm-3
28-01-2003,24:00,80,R,ugm-3
29-01-2003,01:00,80,R,ugm-3
29-01-2003,02:00,82,R,ugm-3
29-01-2003,03:00,84,R,ugm-3
29-01-2003,04:00,84,R,ugm-3
29-01-2003,05:00,84,R,ugm-3
29-01-2003,06:00,82,R,ugm-3
29-01-2003,07:00,86,R,ugm-3
29-01-2003,08:00,84,R,ugm-3
29-01-2003,09:00,84,R,ugm-3
29-01-2003,10:00,86,R,ugm-3
29-01-2003,11:00,86,R,ugm-3
29-01-2003,12:00,84,R,ugm-3
29-01-2003,13:00,84,R,ugm-3
29-01-2003,14:00,84,R,ugm-3
29-01-2003,15:00,84,R,ugm-3
29-01-2003,16:00,84,R,ugm-3
29-01-2003,17:00,84,R,ugm-3
29-01-2003,18:00,84,R,ugm-3
29-01-2003,19:00,84,R,ugm-3
29-01-2003,20:00,86,R,ugm-3
29-01-2003,21:00,86,R,ugm-3
29-01-2003,22:00,86,R,ugm-3
29-01-2003,23:00,84,R,ugm-3
29-01-2003,24:00,84,R,ugm-3
30-01-2003,01:00,86,R,ugm-3
30-01-2003,02:00,88,R,ugm-3
30-01-2003,03:00,88,R,ugm-3
30-01-2003,04:00,88,R,ugm-3
30-01-2003,05:00,88,R,ugm-3
30-01-2003,06:00,88,R,ugm-3
30-01-2003,07:00,88,R,ugm-3
30-01-2003,08:00,88,R,ugm-3
30-01-2003,09:00,88,R,ugm-3
30-01-2003,10:00,88,R,ugm-3
30-01-2003,11:00,88,R,ugm-3
30-01-2003,12:00,88,R,ugm-3
30-01-2003,13:00,88,R,ugm-3
30-01-2003,14:00,88,R,ugm-3
30-01-2003,15:00,88,R,ugm-3
30-01-2003,16:00,90,R,ugm-3
30-01-2003,17:00,90,R,ugm-3
30-01-2003,18:00,90,R,ugm-3
30-01-2003,19:00,90,R,ugm-3
30-01-2003,20:00,90,R,ugm-3
30-01-2003,21:00,90,R,ugm-3
30-01-2003,22:00,90,R,ugm-3
30-01-2003,23:00,90,R,ugm-3
30-01-2003,24:00,90,R,ugm-3
31-01-2003,01:00,90,R,ugm-3
31-01-2003,02:00,92,R,ugm-3
31-01-2003,03:00,92,R,ugm-3
31-01-2003,04:00,90,R,ugm-3
31-01-2003,05:00,88,R,ugm-3
31-01-2003,06:00,90,R,ugm-3
31-01-2003,07:00,90,R,ugm-3
31-01-2003,08:00,86,R,ugm-3
31-01-2003,09:00,82,R,ugm-3
31-01-2003,10:00,80,R,ugm-3
31-01-2003,11:00,86,R,ugm-3
31-01-2003,12:00,86,R,ugm-3
31-01-2003,13:00,84,R,ugm-3
31-01-2003,14:00,88,R,ugm-3
31-01-2003,15:00,88,R,ugm-3
31-01-2003,16:00,90,R,ugm-3
31-01-2003,17:00,90,R,ugm-3
31-01-2003,18:00,86,R,ugm-3
31-01-2003,19:00,84,R,ugm-3
31-01-2003,20:00,90,R,ugm-3
31-01-2003,21:00,90,R,ugm-3
31-01-2003,22:00,86,R,ugm-3
31-01-2003,23:00,84,R,ugm-3
31-01-2003,24:00,84,R,ugm-3
01-02-2003,01:00,80,R,ugm-3
01-02-2003,02:00,82,R,ugm-3
01-02-2003,03:00,84,R,ugm-3
01-02-2003,04:00,86,R,ugm-3
01-02-2003,05:00,84,R,ugm-3
01-02-2003,06:00,84,R,ugm-3
01-02-2003,07:00,82,R,ugm-3
01-02-2003,08:00,86,R,ugm-3
01-02-2003,09:00,82,R,ugm-3
01-02-2003,10:00,86,R,ugm-3
01-02-2003,11:00,86,R,ugm-3
01-02-2003,12:00,86,R,ugm-3
01-02-2003,13:00,86,R,ugm-3
01-02-2003,14:00,88,R,ugm-3
01-02-2003,15:00,88,R,ugm-3
01-02-2003,16:00,88,R,ugm-3
01-02-2003,17:00,90,R,ugm-3
01-02-2003,18:00,90,R,ugm-3
01-02-2003,19:00,90,R,ugm-3
01-02-2003,20:00,90,R,ugm-3
01-02-2003,21:00,90,R,ugm-3
01-02-2003,22:00,88,R,ugm-3
01-02-2003,23:00,90,R,ugm-3
01-02-2003,24:00,88,R,ugm-3
02-02-2003,01:00,88,R,ugm-3
02-02-2003,02:00,90,R,ugm-3
02-02-2003,03:00,88,R,ugm-3
02-02-2003,04:00,86,R,ugm-3
02-02-2003,05:00,86,R,ugm-3
02-02-2003,06:00,88,R,ugm-3
02-02-2003,07:00,86,R,ugm-3
02-02-2003,08:00,86,R,ugm-3
02-02-2003,09:00,88,R,ugm-3
02-02-2003,10:00,86,R,ugm-3
02-02-2003,11:00,86,R,ugm-3
02-02-2003,12:00,86,R,ugm-3
02-02-2003,13:00,86,R,ugm-3
02-02-2003,14:00,86,R,ugm-3
02-02-2003,15:00,88,R,ugm-3
02-02-2003,16:00,90,R,ugm-3
02-02-2003,17:00,88,R,ugm-3
02-02-2003,18:00,90,R,ugm-3
02-02-2003,19:00,88,R,ugm-3
02-02-2003,20:00,88,R,ugm-3
02-02-2003,21:00,86,R,ugm-3
02-02-2003,22:00,86,R,ugm-3
02-02-2003,23:00,86,R,ugm-3
02-02-2003,24:00,86,R,ugm-3
03-02-2003,01:00,86,R,ugm-3
03-02-2003,02:00,92,R,ugm-3
03-02-2003,03:00,90,R,ugm-3
03-02-2003,04:00,88,R,ugm-3
03-02-2003,05:00,88,R,ugm-3
03-02-2003,06:00,86,R,ugm-3
03-02-2003,07:00,86,R,ugm-3
03-02-2003,08:00,84,R,ugm-3
03-02-2003,09:00,80,R,ugm-3
03-02-2003,10:00,80,R,ugm-3
03-02-2003,11:00,84,R,ugm-3
03-02-2003,12:00,82,R,ugm-3
03-02-2003,13:00,80,R,ugm-3
03-02-2003,14:00,78,R,ugm-3
03-02-2003,15:00,78,R,ugm-3
03-02-2003,16:00,80,R,ugm-3
03-02-2003,17:00,80,R,ugm-3
03-02-2003,18:00,90,R,ugm-3
03-02-2003,19:00,86,R,ugm-3
03-02-2003,20:00,82,R,ugm-3
03-02-2003,21:00,78,R,ugm-3
03-02-2003,22:00,78,R,ugm-3
03-02-2003,23:00,82,R,ugm-3
03-02-2003,24:00,82,R,ugm-3
04-02-2003,01:00,84,R,ugm-3
04-02-2003,02:00,78,R,ugm-3
04-02-2003,03:00,78,R,ugm-3
04-02-2003,04:00,80,R,ugm-3
04-02-2003,05:00,82,R,ugm-3
04-02-2003,06:00,80,R,ugm-3
04-02-2003,07:00,82,R,ugm-3
04-02-2003,08:00,84,R,ugm-3
04-02-2003,09:00,82,R,ugm-3
04-02-2003,10:00,88,R,ugm-3
04-02-2003,11:00,90,R,ugm-3
04-02-2003,12:00,90,R,ugm-3
04-02-2003,13:00,88,R,ugm-3
04-02-2003,14:00,86,R,ugm-3
04-02-2003,15:00,86,R,ugm-3
04-02-2003,16:00,82,R,ugm-3
04-02-2003,17:00,82,R,ugm-3
04-02-2003,18:00,84,R,ugm-3
04-02-2003,19:00,82,R,ugm-3
04-02-2003,20:00,84,R,ugm-3
04-02-2003,21:00,82,R,ugm-3
04-02-2003,22:00,80,R,ugm-3
04-02-2003,23:00,84,R,ugm-3
04-02-2003,24:00,88,R,ugm-3
05-02-2003,01:00,84,R,ugm-3
05-02-2003,02:00,82,R,ugm-3
05-02-2003,03:00,80,R,ugm-3
05-02-2003,04:00,80,R,ugm-3
05-02-2003,05:00,82,R,ugm-3
05-02-2003,06:00,80,R,ugm-3
05-02-2003,07:00,78,R,ugm-3
05-02-2003,08:00,78,R,ugm-3
05-02-2003,09:00,78,R,ugm-3
05-02-2003,10:00,78,R,ugm-3
05-02-2003,11:00,78,R,ugm-3
05-02-2003,12:00,78,R,ugm-3
05-02-2003,13:00,78,R,ugm-3
05-02-2003,14:00,78,R,ugm-3
05-02-2003,15:00,78,R,ugm-3
05-02-2003,16:00,76,R,ugm-3
05-02-2003,17:00,76,R,ugm-3
05-02-2003,18:00,76,R,ugm-3
05-02-2003,19:00,78,R,ugm-3
05-02-2003,20:00,78,R,ugm-3
05-02-2003,21:00,78,R,ugm-3
05-02-2003,22:00,78,R,ugm-3
05-02-2003,23:00,76,R,ugm-3
05-02-2003,24:00,80,R,ugm-3
06-02-2003,01:00,78,R,ugm-3
06-02-2003,02:00,80,R,ugm-3
06-02-2003,03:00,84,R,ugm-3
06-02-2003,04:00,86,R,ugm-3
06-02-2003,05:00,84,R,ugm-3
06-02-2003,06:00,78,R,ugm-3
06-02-2003,07:00,80,R,ugm-3
06-02-2003,08:00,80,R,ugm-3
06-02-2003,09:00,80,R,ugm-3
06-02-2003,10:00,80,R,ugm-3
06-02-2003,11:00,84,R,ugm-3
06-02-2003,12:00,78,R,ugm-3
06-02-2003,13:00,76,R,ugm-3
06-02-2003,14:00,72,R,ugm-3
06-02-2003,15:00,72,R,ugm-3
06-02-2003,16:00,72,R,ugm-3